Weather History for KFDR - May, 2014

Change the Weather History Date:

Thursday, May 15, 2014

  Actual Average (KLTS) Record (KLTS)
Temperature  
Mean Temperature 64 °F -  
Max Temperature 82 °F 82 °F 95 °F (1999)
Min Temperature 45 °F 58 °F 42 °F (2014)
Degree Days  
Heating Degree Days 2    
Growing Degree Days 14 (Base 50)    
Moisture  
Dew Point 31 °F    
Average Humidity 31    
Maximum Humidity 56    
Minimum Humidity 14    
Precipitation  
Precipitation 0.00 in - - ()
Sea Level Pressure  
Sea Level Pressure 30.11 in    
Wind  
Wind Speed 8 mph (NNW)    
Max Wind Speed 18 mph    
Max Gust Speed 25 mph    
Visibility 10 miles    
Events      
Averages and records for this station are not official NWS values.
T = Trace of Precipitation, MM = Missing Value Source: NWS Daily Summary

Daily Weather History Graph

Daily Weather History Graph

Search for Another Location

Airport or City:

Trip Planner

Search our weather history database for the weather conditions in past years. The results will help you decide how hot, cold, wet, or windy it might be!

Date:

Astronomy

May. 15, 2014 Rise Set
Actual Time 6:33 AM CDT 8:31 PM CDT
Civil Twilight 6:05 AM CDT 8:59 PM CDT
Nautical Twilight 5:32 AM CDT 9:32 PM CDT
Astronomical Twilight 4:56 AM CDT 10:09 PM CDT
Moon 9:40 PM CDT (5/15) 7:21 AM CDT (5/15)
Length of Visible Light 14h 53m
Length of Day
13h 57m
Full, 99% of the Moon is Illuminated
May 15
Full
May 21
Last Quarter
May 28
New
Jun 5
First Quarter
Jun 12
Full

Hourly Weather History & Observations

Time (CDT) Temp. Windchill Dew Point Humidity Pressure Visibility Wind Dir Wind Speed Gust Speed Precip Events Conditions
12:53 AM 55.0 °F - 26.1 °F 33% 30.17 in 10.0 mi SE 6.9 mph - N/A   Clear
2:53 AM 52.0 °F - 27.0 °F 38% 30.16 in 10.0 mi WSW 3.5 mph - N/A   Clear
3:53 AM 48.9 °F - 28.9 °F 46% 30.15 in 10.0 mi West 5.8 mph - N/A   Clear
4:53 AM 50.0 °F - 28.9 °F 44% 30.16 in 10.0 mi NW 10.4 mph - N/A   Clear
5:53 AM 50.0 °F - 28.0 °F 43% 30.16 in 10.0 mi WNW 10.4 mph - N/A   Clear
6:53 AM 45.0 °F 41.8 °F 30.0 °F 56% 30.16 in 10.0 mi West 5.8 mph - N/A   Clear
7:53 AM 53.1 °F - 32.0 °F 45% 30.16 in 10.0 mi WSW 3.5 mph - N/A   Clear
8:53 AM 60.1 °F - 28.9 °F 31% 30.17 in 10.0 mi WNW 9.2 mph - N/A   Clear
9:53 AM 64.9 °F - 30.0 °F 27% 30.17 in 10.0 mi North 8.1 mph - N/A   Clear
10:53 AM 71.1 °F - 30.9 °F 23% 30.17 in 10.0 mi NNW 8.1 mph 16.1 mph N/A   Clear
11:53 AM 75.0 °F - 30.9 °F 20% 30.16 in 10.0 mi NNW 8.1 mph 17.3 mph N/A   Clear
12:53 PM 75.9 °F - 30.0 °F 19% 30.14 in 10.0 mi NNW 9.2 mph - N/A   Clear
2:53 PM 82.0 °F - 30.0 °F 15% 30.08 in 10.0 mi NW 15.0 mph 25.3 mph N/A   Partly Cloudy
3:53 PM 82.0 °F - 28.9 °F 14% 30.05 in 10.0 mi NW 12.7 mph 24.2 mph N/A   Partly Cloudy
4:53 PM 79.0 °F - 28.0 °F 15% 30.02 in 10.0 mi NNE 8.1 mph - N/A   Clear
5:53 PM 82.0 °F - 28.9 °F 14% 30.00 in 10.0 mi ENE 12.7 mph 19.6 mph N/A   Clear
6:53 PM 80.1 °F - 30.9 °F 17% 30.00 in 10.0 mi NE 11.5 mph - N/A   Clear
7:53 PM 73.9 °F - 35.1 °F 24% 30.02 in 10.0 mi ENE 18.4 mph - N/A   Clear
8:53 PM 69.1 °F - 36.0 °F 30% 30.04 in 10.0 mi ENE 12.7 mph - N/A   Clear
9:53 PM 64.9 °F - 37.9 °F 37% 30.06 in 10.0 mi ENE 11.5 mph - N/A   Clear
10:53 PM 60.1 °F - 37.9 °F 44% 30.08 in 10.0 mi ENE 8.1 mph - N/A   Clear
11:53 PM 57.0 °F - 37.9 °F 49% 30.07 in 10.0 mi East 6.9 mph - N/A   Clear